STARLINK-1500, 45744

Orbit data source: Space-Track

STARLINK-1500, 45744 is a payload satellite owned by SpaceX/Seattle (US) in LEO that was launched on Sat, 13 Jun 2020 UTC via an FALCON 9 launch vehicle from the Air Force Eastern Test Range (AFETR). Payloads include a variety of satellites, spacecraft, and rockets equipped with specific instruments for various scientific and technological missions. These include communications satellites like Starlink; space stations such as the ISS; scientific satellites like the Hubble; Earth observation satellites from companies like Planet Labs, Umbra, and HawkEye 360; GPS; miniature CubeSats for education and research; and military/defense satellites.

Loading next visibility...
STARLINK-1500 details
Identifier
45744, 2020-038Q
Orbit
LEO
Last TLE update7 hours ago
Origin
Flag of USSpaceX/Seattle (US)
ManufacturerSpaceX/Seattle
MissionOperational Commercial Communications
Bus & MotorSTARLINK, Unknown motor
Mass260 kg wet, ~248 kg dry
Launch date (UTC)
2020-06-13 (5 years ago)
Launch vehicle
FALCON 9
Launch site
Air Force Eastern Test Range (AFETR)
Object type
Payload
Rocket body
Debris
Shape & HBRBox + 1 Pan, 8.86 m
Radar Cross Section13.562 m², Large (>1 m²)

Expand to show TLE details & history

TLE from 7 hours ago
0 STARLINK-1500
1 45744U 20038Q   24361.52326610  .00027896  00000-0  18831-2 0  9993
2 45744  53.0546  43.6240 0001514  86.5981 273.5181 15.06423318250159
Epoch: 2024-12-26T12:33Z
Definitive object data (Epoch: 2024-12-26T12:33:30.191Z)
Latitude-0.00001°
Longitude119.74676°
Altitude547.955 km
Speed7.589 km/s
True Right ascension02h 54m 29s
True Declination0° 00' 00"
Sunlit
Object was in full shadow at TLE epoch
Visualization TLE readout
Latitude24.02776°
Longitude138.00744°
Altitude547.372 km
Speed7.592 km/s
Apparent Right ascension05h 07m 49s
Apparent Declination-6° 44' 12"
Sunlit
Object is in full shadow
Visualization observer readout
Local Sidereal Time18:26:19
Azimuth33.176° NE
Elevation-52.439°
Doppler factor1
Orbital elements
Apogee altitude548.459 km
Perigee altitude546.362 km
Semi-major axis6,925.548 km
Eccentricity0.0001514
Inclination53.0546°
RAAN43.624°
Arg. of periapsis86.5981°
True anomaly273.50078°
Mean anomaly273.5181°
Eccentric anomaly273.50944°
Mean motion3.76584 °/min
BSTAR0.0018831
Orbital period95.6 mins
Loading maneuver chart data...

STARLINK-1500 Visibility forecast

Observer location: undefined°, undefined

Span
Click to sort rows by Start time (UTC) header in descending order
Start Az.
Max El. time (UTC)
Max El. Az.
Max El.
End time (UTC)
End Az.
5 mins2024-12-27 04:37:43.866Z173.272° S2024-12-27 04:40:43.866Z121.473° SE19.316°2024-12-27 04:42:43.866Z87.392° E
6 mins2024-12-27 06:16:43.866Z250.167° W2024-12-27 06:19:43.866Z331.089° NNW39.25°2024-12-27 06:22:43.866Z39.573° NE
5 mins2024-12-27 11:19:43.866Z348.502° N2024-12-27 11:21:43.866Z36.064° NE24.611°2024-12-27 11:24:43.866Z85.403° E
6 mins2024-12-27 12:58:43.866Z293.695° NW2024-12-27 13:00:43.866Z246.738° WSW38.078°2024-12-27 13:04:43.866Z148.668° SSE
|